Location: Owatonna
(44.0840°N, 93.2260°W)
Time: 10:20:25
(UTC-05:00)

Daily predictions for brighter satellites

Satellite Brightness Start Highest point End
(mag) Time Altitude Azimuth Time Altitude Azimuth Time Altitude Azimuth
Cosmos 1939 Rocket 3.2 21:16:12 10° SSE 21:20:16 56° ENE 21:24:20 10° N
Lacrosse 5 rocket 3.8 21:17:09 10° W 21:20:26 25° NNW 21:23:51 10° NNE
Cosmos 1943 Rocket 4.0 21:18:04 10° N 21:21:56 19° NE 21:25:47 10° E
BREEZE M DEB (TANK) 1.2 21:20:32 10° W 21:23:41 80° SSW 21:25:38 10° ESE
ERS-1 Rocket 3.1 21:19:53 10° SSE 21:24:55 81° WSW 21:29:58 10° NNW
USA 186 3.7 21:23:41 10° SSW 21:25:57 23° W 21:28:07 10° NW
Meteor 2-4 Rocket 4.4 21:20:12 10° SSW 21:26:01 64° WNW 21:31:57 10° N
USA 234 3.9 21:20:51 10° E 21:27:08 51° NNE 21:33:27 10° NW
Cosmos 1943 3.9 21:22:38 10° SSE 21:27:38 33° ESE 21:32:41 10° NE
SPOT 5 3.0 21:23:49 10° SE 21:28:00 47° ENE 21:32:09 10° N
CZ-4 SHROUD 3.6 21:29:09 10° SSE 21:32:12 47° ENE 21:35:16 10° N
Terra 4.0 21:33:25 10° E 21:35:18 12° ENE 21:37:11 10° NE
Lacrosse 5 4.5 21:33:24 10° WNW 21:37:09 20° N 21:40:55 10° NE
Envisat 3.0 21:32:25 10° SSE 21:37:27 72° ENE 21:42:33 10° N
Cosmos 1346 Rocket 4.2 21:34:31 10° SE 21:37:28 21° E 21:40:26 10° NE
COSMOS 2455 2.8 21:32:39 10° SSW 21:38:36 69° ESE 21:44:36 10° NE
Cosmos 1602 Rocket 3.7 21:34:33 10° S 21:39:01 81° W 21:43:31 10° N
Cosmos 407 Rocket 4.5 21:35:59 10° SSE 21:40:21 27° E 21:44:42 10° NE
Cosmos 1825 Rocket 4.3 21:39:06 10° SSE 21:43:10 36° E 21:47:14 10° NNE
PSLV R/B 3.2 21:41:05 10° SSE 21:44:09 67° ENE 21:47:16 10° N
Tsikada Rocket 4.1 21:42:06 10° S 21:48:30 89° W 21:54:55 10° N
Cosmos 1812 Rocket 3.7 21:44:06 10° N 21:48:31 81° W 21:52:56 10° S
ARGOS 3.7 21:55:38 13° SE 22:00:08 46° ENE 22:05:18 10° N
H-2A R/B 3.4 21:58:20 10° SSW 22:02:17 37° W 22:06:23 10° NNW
Cosmos 1766 4.2 22:04:51 10° N 22:08:33 34° ENE 22:10:49 19° SE
Cosmos 2369 Rocket 2.2 22:03:40 10° NNW 22:09:22 89° ENE 22:13:56 16° SSE
Cosmos 1992 Rocket 4.2 22:05:35 10° NNW 22:10:47 69° WSW 22:15:24 13° S
MetOp-B 4.2 22:06:19 12° SSE 22:11:23 86° WSW 22:16:48 10° NNW
USA 81 4.0 22:07:42 10° N 22:13:01 82° E 22:17:45 13° S
UNK 4.2 22:08:27 10° NNE 22:13:56 84° ESE 22:19:41 10° SSW
SL-8 R/B 4.4 22:10:09 10° WNW 22:14:54 54° N 22:19:40 10° E
Lacrosse 4 Rocket 1.4 22:11:04 10° SSW 22:15:02 55° ESE 22:19:03 10° NE
USA 245 4.1 22:13:37 14° SSE 22:18:36 81° ENE 22:23:29 10° N
Cosmos 1634 Rocket 4.0 22:14:29 10° N 22:20:41 90° W 22:26:12 14° S
SeaSat 1 2.7 22:18:29 16° SSE 22:22:25 64° WSW 22:27:20 10° NNW
NOAA 11 4.2 22:20:26 19° SSE 22:24:25 68° ENE 22:29:49 10° N
SL-08 RB Rocket 3.8 22:25:26 22° SSE 22:28:19 66° ENE 22:32:49 10° N
Cosmos 1953 Rocket 3.5 22:26:34 13° S 22:30:29 87° E 22:34:58 10° N
YAOGAN 6 3.0 22:29:04 19° S 22:31:39 62° W 22:35:22 10° NNW
Cosmos 489 Rocket 4.5 22:26:56 10° SSW 22:33:16 76° ESE 22:39:38 10° NNE
CZ-4B R/B 3.7 22:29:14 10° NNE 22:34:21 78° WNW 22:39:33 10° SSW
Cosmos 1190 Rocket 4.2 22:30:54 10° SSW 22:36:13 79° WNW 22:41:34 10° NNE
Cosmos-2242 3.5 22:31:58 10° N 22:36:14 46° ENE 22:38:14 27° SE
Cosmos 1805 4.3 22:34:39 10° NNE 22:38:12 31° ENE 22:39:29 25° ESE
H-2A R/B 2.4 22:36:00 24° SE 22:38:45 49° ENE 22:43:39 10° N
Cosmos 2263 4.3 22:34:40 10° NNW 22:40:17 73° WSW 22:43:55 23° SSE
Cosmos 2279 Rocket 4.0 22:35:20 10° N 22:41:37 78° E 22:45:51 22° SSE
ISS -1.9 22:38:40 10° W 22:41:46 40° NNW 22:44:53 10° NE
CZ-4C R/B 3.4 22:41:12 28° SSE 22:43:21 82° ENE 22:47:23 10° N
CZ-4C R/B 4.1 22:45:27 12° E 22:45:27 12° E 22:46:39 10° E
Atlas Centaur 2 3.8 22:39:45 10° WSW 22:46:07 29° S 22:49:12 23° SSE
SPOT 1/Viking Rocket 4.0 22:43:56 17° S 22:47:48 56° W 22:52:52 10° NNW
COSMOS 2406 3.7 22:45:47 25° SSE 22:48:22 39° ESE 22:53:39 10° NE
Cosmos 1932 4.5 22:43:09 10° SSW 22:49:09 57° ESE 22:55:15 10° NE
SAR-Lupe-2 3.7 22:49:00 38° SE 22:50:07 58° ENE 22:53:40 10° N
Cosmos 1140 Rocket 3.9 22:47:55 27° SSE 22:50:11 42° ESE 22:55:06 10° NE
Cosmos 676 Rocket 4.0 22:48:02 10° SSW 22:53:16 89° ESE 22:58:39 10° NNE
PSLV R/B 3.6 22:51:26 10° W 22:54:53 49° S 22:55:15 46° SSE
CZ-4 R/B 4.2 22:50:51 10° N 22:55:50 70° WNW 23:00:29 12° SSW
ATLAS 3B R/B 3.1 22:48:21 10° SW 22:56:05 78° NW 23:03:37 10° NE
Landsat 7 3.8 22:54:04 29° SSE 22:56:31 89° WSW 23:01:18 10° NNW
Cosmos 1953 2.3 22:54:31 10° N 22:58:30 66° E 22:59:43 41° SSE
Lacrosse 5 rocket 4.4 22:58:47 10° NW 23:00:58 14° N 23:03:11 10° NNE
Cosmos 1758 Rocket 4.3 23:00:48 14° SSW 23:04:20 50° WNW 23:08:36 10° N
Spot 4 3.9 23:04:05 35° SE 23:06:02 66° ENE 23:10:48 10° N
Cosmos 1943 Rocket 2.1 23:00:48 10° NNW 23:06:22 81° WSW 23:09:02 32° SSE
CARTOSAT-1 3.5 23:05:16 38° SSE 23:06:55 87° ENE 23:11:16 10° NNW
Kosmos-1675 3.9 23:06:52 21° SSW 23:08:59 87° SE 23:19:45 10° NE
USA 234 3.4 23:06:30 28° SSE 23:10:03 60° SW 23:16:34 10° NW
DMSP B5D2-2 4.1 23:04:57 10° NNE 23:10:14 66° ESE 23:12:38 32° S
Terra 1.8 23:10:21 36° SSE 23:12:19 88° WSW 23:17:07 10° NNW
Cosmos 1707 4.4 23:12:54 21° E 23:12:54 21° E 23:15:42 10° NE
Cosmos 614 Rocket 4.4 23:13:24 36° SE 23:14:43 43° ESE 23:19:39 10° NNE
Cosmos 1656 Rocket 3.9 23:11:34 10° NNW 23:17:15 63° ENE 23:19:41 34° SE
SL-27 R/B 2.6 23:19:48 43° SW 23:20:41 63° WNW 23:24:02 10° NNE
Lacrosse 5 4.2 23:17:49 10° NW 23:21:42 21° NNE 23:25:34 10° ENE
Cosmos 1842 4.0 23:20:16 27° SW 23:22:07 50° WNW 23:25:57 10° N
COSMOS 2487 3.6 23:23:16 31° ENE 23:23:16 31° ENE 23:25:54 10° NE
Cosmos 1842 Rocket 3.5 23:29:18 10° N 23:33:42 83° W 23:34:46 52° S
USA 238 DEB 3.7 23:31:26 10° SW 23:38:34 90° NW 23:45:40 10° NE
USA 238 3.7 23:31:32 10° SW 23:38:39 90° E 23:45:45 10° NE
Cosmos 1733 3.6 23:35:22 10° N 23:39:07 47° ENE 23:39:17 46° E
IGS 5A 4.2 23:41:59 36° SW 23:43:00 43° W 23:47:00 10° NNW
CZ-4B R/B 3.6 23:44:24 18° ENE 23:44:45 18° ENE 23:47:18 10° NNE
Cosmos 2208 Rocket 4.2 23:42:01 10° NNW 23:47:06 58° WSW 23:48:36 42° SSW
Cosmos 1092 Rocket 4.0 23:47:06 35° S 23:49:58 88° W 23:56:18 10° N
Cosmos 2084 4.4 23:48:20 10° NW 23:52:06 33° WSW 23:52:16 33° SW
Cosmos 2369 Rocket 4.5 23:50:01 10° WNW 23:52:31 13° W 23:55:02 10° WSW
Lacrosse 4 Rocket 4.2 23:51:19 10° W 23:54:06 17° NW 23:56:55 10° N
